TimeCDT,TemperatureF,Dew PointF,Humidity,Sea Level PressureIn,VisibilityMPH,Wind Direction,Wind SpeedMPH,Gust SpeedMPH,PrecipitationIn,Events,Conditions,WindDirDegrees,DateUTC
12:15 AM,21.9,7.3,54,30.00,10.0,North,36.8,43.7,N/A,,Clear,350,2013-04-10 05:15:00
12:35 AM,21.9,6.8,52,30.00,10.0,NNW,36.8,43.7,N/A,,Clear,340,2013-04-10 05:35:00
12:55 AM,21.4,6.6,53,30.04,10.0,North,31.1,41.4,N/A,,Clear,350,2013-04-10 05:55:00
1:15 AM,21.4,6.1,52,30.04,10.0,North,27.6,40.3,N/A,,Clear,360,2013-04-10 06:15:00
1:35 AM,21.2,5.9,52,30.01,10.0,North,25.3,40.3,N/A,,Clear,360,2013-04-10 06:35:00
1:55 AM,20.7,5.5,52,30.04,10.0,North,25.3,43.7,N/A,,Clear,360,2013-04-10 06:55:00
2:15 AM,20.8,5.9,53,30.02,10.0,North,31.1,40.3,N/A,,Clear,350,2013-04-10 07:15:00
2:35 AM,20.3,5.7,53,30.04,10.0,North,34.5,41.4,N/A,,Clear,350,2013-04-10 07:35:00
2:55 AM,19.9,4.1,50,30.03,10.0,North,31.1,43.7,N/A,,Clear,360,2013-04-10 07:55:00
3:15 AM,19.9,4.5,51,30.04,10.0,North,31.1,42.6,N/A,,Clear,350,2013-04-10 08:15:00
3:35 AM,19.2,4.1,52,30.04,10.0,North,25.3,38.0,N/A,,Clear,360,2013-04-10 08:35:00
3:55 AM,19.0,3.7,51,30.07,10.0,North,25.3,34.5,N/A,,Clear,360,2013-04-10 08:55:00
4:15 AM,18.7,3.9,53,30.06,10.0,North,21.9,31.1,N/A,,Clear,360,2013-04-10 09:15:00
4:35 AM,18.5,3.9,53,30.08,10.0,North,27.6,34.5,N/A,,Clear,360,2013-04-10 09:35:00
4:55 AM,18.1,3.9,54,30.06,10.0,North,25.3,34.5,N/A,,Clear,360,2013-04-10 09:55:00
5:15 AM,17.6,3.4,54,30.02,10.0,North,28.8,39.1,N/A,,Clear,350,2013-04-10 10:15:00
5:35 AM,17.6,3.7,55,30.02,10.0,North,32.2,39.1,N/A,,Clear,350,2013-04-10 10:35:00
5:55 AM,17.4,3.9,56,30.01,10.0,NNW,32.2,38.0,N/A,,Clear,340,2013-04-10 10:55:00
6:15 AM,17.1,3.2,55,30.04,10.0,North,29.9,35.7,N/A,,Clear,350,2013-04-10 11:15:00
6:35 AM,17.1,3.2,55,30.03,10.0,North,28.8,41.4,N/A,,Clear,350,2013-04-10 11:35:00
6:55 AM,16.7,3.2,55,30.05,10.0,North,28.8,36.8,N/A,,Clear,350,2013-04-10 11:55:00
7:15 AM,17.1,3.6,56,30.06,10.0,North,25.3,34.5,N/A,,Clear,350,2013-04-10 12:15:00
7:35 AM,17.2,3.7,56,30.08,10.0,NNW,25.3,31.1,N/A,,Scattered Clouds,330,2013-04-10 12:35:00
7:55 AM,17.2,3.6,55,30.06,10.0,North,29.9,36.8,N/A,,Scattered Clouds,350,2013-04-10 12:55:00
8:15 AM,17.4,3.9,56,30.08,10.0,NNW,27.6,35.7,N/A,,Mostly Cloudy,340,2013-04-10 13:15:00
8:35 AM,18.3,4.1,54,30.07,10.0,NNW,28.8,38.0,N/A,,Overcast,340,2013-04-10 13:35:00
8:55 AM,19.0,4.1,52,30.07,10.0,North,29.9,36.8,N/A,,Mostly Cloudy,350,2013-04-10 13:55:00
9:15 AM,19.9,4.5,51,30.09,10.0,NNW,29.9,34.5,N/A,,Mostly Cloudy,340,2013-04-10 14:15:00
9:35 AM,20.7,4.6,50,30.10,10.0,NNW,28.8,-,N/A,,Mostly Cloudy,340,2013-04-10 14:35:00
9:55 AM,20.8,4.3,49,30.10,10.0,North,28.8,35.7,N/A,,Mostly Cloudy,350,2013-04-10 14:55:00
10:15 AM,22.8,4.6,46,30.09,10.0,North,28.8,34.5,N/A,,Scattered Clouds,350,2013-04-10 15:15:00
10:35 AM,24.1,4.5,43,30.06,10.0,North,27.6,35.7,N/A,,Clear,350,2013-04-10 15:35:00
10:55 AM,24.8,4.6,42,30.07,10.0,NNW,28.8,41.4,N/A,,Clear,340,2013-04-10 15:55:00
11:15 AM,25.7,4.6,41,30.07,10.0,North,25.3,35.7,N/A,,Scattered Clouds,350,2013-04-10 16:15:00
11:35 AM,27.5,4.6,38,30.07,10.0,NNW,31.1,36.8,N/A,,Scattered Clouds,340,2013-04-10 16:35:00
12:15 PM,29.7,5.0,35,30.07,10.0,NNW,28.8,35.7,N/A,,Clear,340,2013-04-10 17:15:00
1:35 PM,34.3,6.1,31,30.03,10.0,North,24.2,33.4,N/A,,Clear,350,2013-04-10 18:35:00
1:55 PM,35.6,6.6,30,30.03,10.0,NNW,26.5,33.4,N/A,,Clear,340,2013-04-10 18:55:00
2:15 PM,37.6,9.0,31,30.02,10.0,NNW,25.3,32.2,N/A,,Clear,330,2013-04-10 19:15:00
2:35 PM,37.6,9.1,31,30.00,10.0,NNW,20.7,29.9,N/A,,Clear,340,2013-04-10 19:35:00
2:55 PM,38.5,9.1,30,30.00,10.0,NNW,20.7,31.1,N/A,,Clear,340,2013-04-10 19:55:00
3:15 PM,38.3,10.0,31,29.98,10.0,North,21.9,29.9,N/A,,Clear,350,2013-04-10 20:15:00
3:35 PM,39.2,10.0,30,29.98,10.0,North,17.3,23.0,N/A,,Clear,360,2013-04-10 20:35:00
3:55 PM,39.9,9.9,29,29.98,10.0,North,16.1,25.3,N/A,,Clear,350,2013-04-10 20:55:00
4:15 PM,41.0,10.2,28,29.97,10.0,NW,17.3,24.2,N/A,,Clear,320,2013-04-10 21:15:00
4:35 PM,40.6,10.0,29,29.96,10.0,NNW,16.1,27.6,N/A,,Clear,340,2013-04-10 21:35:00
4:55 PM,41.5,9.9,27,29.95,10.0,North,13.8,26.5,N/A,,Clear,10,2013-04-10 21:55:00
5:15 PM,41.7,10.0,27,29.95,10.0,NNW,18.4,24.2,N/A,,Clear,330,2013-04-10 22:15:00
5:35 PM,42.6,9.7,26,29.94,10.0,NNW,19.6,26.5,N/A,,Clear,340,2013-04-10 22:35:00
5:55 PM,42.6,9.3,26,29.93,10.0,NNW,18.4,21.9,N/A,,Clear,340,2013-04-10 22:55:00
6:15 PM,41.9,8.6,26,29.93,10.0,NNW,20.7,26.5,N/A,,Clear,340,2013-04-10 23:15:00
6:35 PM,41.2,8.6,26,29.94,10.0,NNW,18.4,25.3,N/A,,Clear,330,2013-04-10 23:35:00
6:55 PM,40.3,7.7,26,29.94,10.0,North,16.1,24.2,N/A,,Clear,350,2013-04-10 23:55:00
7:15 PM,40.1,7.7,26,29.95,10.0,NNW,16.1,-,N/A,,Clear,340,2013-04-11 00:15:00
7:35 PM,39.6,7.7,27,29.95,10.0,NNW,17.3,-,N/A,,Clear,340,2013-04-11 00:35:00
7:55 PM,38.5,7.7,28,29.96,10.0,North,16.1,20.7,N/A,,Clear,350,2013-04-11 00:55:00
8:15 PM,36.5,7.7,30,29.96,10.0,NNW,10.4,-,N/A,,Clear,340,2013-04-11 01:15:00
8:35 PM,34.3,7.9,33,29.97,10.0,NNW,8.1,-,N/A,,Clear,340,2013-04-11 01:35:00
8:55 PM,32.2,8.6,37,29.98,10.0,NNW,5.8,-,N/A,,Clear,330,2013-04-11 01:55:00
9:15 PM,32.0,8.2,37,29.98,10.0,NNW,9.2,-,N/A,,Clear,330,2013-04-11 02:15:00
9:35 PM,31.8,9.0,38,30.00,10.0,NW,5.8,-,N/A,,Clear,320,2013-04-11 02:35:00
9:55 PM,30.6,8.1,39,30.00,10.0,NW,5.8,-,N/A,,Clear,320,2013-04-11 02:55:00
10:15 PM,29.1,7.7,41,30.00,10.0,NNW,9.2,-,N/A,,Clear,340,2013-04-11 03:15:00
10:35 PM,28.4,8.4,43,30.01,10.0,NNW,6.9,-,N/A,,Clear,340,2013-04-11 03:35:00
10:55 PM,28.4,8.2,43,30.01,10.0,NNW,6.9,-,N/A,,Clear,340,2013-04-11 03:55:00
11:15 PM,29.3,8.8,42,30.01,10.0,North,6.9,-,N/A,,Clear,360,2013-04-11 04:15:00
11:35 PM,27.3,8.8,46,30.01,10.0,North,8.1,-,N/A,,Clear,360,2013-04-11 04:35:00
11:55 PM,25.2,8.2,49,30.01,10.0,North,6.9,-,N/A,,Clear,10,2013-04-11 04:55:00